DW8004 Weather Reports


time (UTC)temp
C
wind
direction
speed
KPH
gust
KPH
rain 1hr
cm
rain 24hr
cm
rain mn
cm
humidity
%
barometer
mb
20260504184522 17 257 0.0 0.0 0.00 0.00 0.00 44 1006.6
20260504183018 17 226 0.0 0.0 0.00 0.00 0.00 45 1006.8
20260504181503 17 226 0.0 0.0 0.00 0.00 0.00 46 1006.9
20260504180105 16 319 0.0 0.0 0.00 0.00 0.00 47 1007.0
20260504174550 16 328 0.0 0.0 0.00 0.00 0.00 47 1007.2
20260504173048 15 315 0.0 0.0 0.00 0.00 0.00 49 1007.5
20260504171631 15 219 0.0 0.0 0.00 0.00 0.00 48 1007.8
20260504170104 15 304 0.0 0.0 0.00 0.00 0.00 49 1007.5
20260504140107 12 294 0.0 0.0 0.00 0.00 0.00 52 1008.7
20260504100114 2 320 0.0 0.0 0.00 0.00 0.00 90 1009.9
20260504090111 3 320 0.0 0.0 0.00 0.00 0.00 90 1009.9
20260504081548 5 320 0.0 0.0 0.00 0.00 0.00 88 1009.9
20260504044602 6 190 0.0 0.0 0.00 0.00 0.00 67 1010.4
20260504043046 6 306 0.0 0.0 0.00 0.00 0.00 65 1010.4
20260504041512 6 246 0.0 0.0 0.00 0.00 0.00 63 1010.3
20260504040107 6 171 0.0 0.0 0.00 0.00 0.00 62 1010.3
20260504034552 6 240 0.0 0.0 0.00 0.00 0.00 60 1010.2
20260504033048 5 239 0.0 0.0 0.00 0.00 0.00 59 1010.2
20260504031515 6 256 0.0 0.0 0.00 0.00 0.00 59 1010.0
20260504030100 6 242 0.0 0.0 0.00 0.00 0.00 56 1009.9
20260504024607 6 245 0.0 0.0 0.00 0.00 0.00 57 1009.8
20260504023040 6 284 0.0 0.0 0.00 0.00 0.00 54 1010.0
20260504021503 5 236 0.0 0.0 0.00 0.00 0.00 57 1010.1
20260504020103 6 223 0.0 0.0 0.00 0.00 0.00 55 1010.0
20260504014531 6 232 0.0 0.0 0.00 0.00 0.00 53 1009.8
20260504013009 6 244 0.0 0.0 0.00 0.00 0.00 54 1009.6
20260504011557 6 279 0.0 0.0 0.00 0.00 0.00 55 1009.5
20260504010100 6 248 0.0 0.0 0.00 0.00 0.00 54 1009.3
20260504004552 5 283 0.0 0.0 0.00 0.00 0.00 55 1009.1
20260504003040 5 227 0.0 0.0 0.00 0.00 0.00 61 1008.9
20260504001529 5 169 0.0 0.0 0.00 0.00 0.00 60 1008.7
20260504000042 6 317 0.0 0.0 0.00 0.00 0.00 54 1008.5
20260503234604 7 196 0.0 0.0 0.00 0.00 0.00 50 1008.3
20260503233057 7 250 0.0 0.0 0.00 0.00 0.00 48 1008.2
20260503231538 7 323 0.0 0.0 0.00 0.00 0.00 45 1008.1
20260503230004 7 225 0.0 0.0 0.00 0.00 0.00 49 1008.1
20260503224504 8 277 0.0 0.0 0.00 0.00 0.00 46 1008.0
20260503223054 8 230 0.0 0.0 0.00 0.00 0.00 46 1008.0
20260503221529 8 288 0.0 0.0 0.00 0.00 0.00 48 1007.8
20260503220028 8 319 0.0 0.0 0.00 0.00 0.00 47 1008.0
20260503214527 7 215 0.0 0.0 0.00 0.00 0.00 47 1007.9
20260503213055 7 232 0.0 0.0 0.00 0.00 0.00 48 1007.9
20260503211608 7 306 0.0 0.0 0.00 0.00 0.00 49 1008.0
20260503210036 7 5 0.0 0.0 0.00 0.00 0.00 49 1007.9
20260503204610 7 288 0.0 0.0 0.00 0.00 0.00 51 1007.9
20260503203036 6 263 0.0 0.0 0.00 0.00 0.00 52 1008.0
20260503201531 7 286 0.0 0.0 0.00 0.00 0.00 51 1008.2
20260503200105 7 348 0.0 0.0 0.00 0.00 0.00 50 1008.2
20260503194549 7 300 0.0 0.0 0.00 0.00 0.00 51 1008.4
20260503193033 6 209 0.0 0.0 0.00 0.00 0.00 50 1008.5
20260503191537 6 272 0.0 0.0 0.00 0.00 0.00 50 1008.5
20260503190016 6 327 0.0 0.0 0.00 0.00 0.00 50 1008.5
20260503184609 6 282 0.0 0.0 0.00 0.00 0.00 49 1008.6